Regional Weather Roundup
Issued by NWS Sioux Falls, SD

Home | Current Version | Previous Version | Text Only | Print | Product List | Glossary On
Versions: 1 2 3 4 5 6 7 8 9 10 11 12 13 14 15 16 17 18 19 20 21 22 23 24 25 26 27 28 29 30 31 32 33 34 35 36 37 38 39 40 41 42 43 44 45 46 47 48 49 50
000
ASUS43 KFSD 060510
RWRFSD

WEATHER ROUNDUP FOR SE SOUTH DAKOTA/SW MINNESOTA/NW IOWA
NATIONAL WEATHER SERVICE SIOUX FALLS SD
1200 AM CDT MON JUL 06 2015

NOTE: "FAIR" INDICATES FEW OR NO CLOUDS BELOW 12,000 FEET WITH NO
SIGNIFICANT WEATHER AND OR OBSTRUCTIONS TO VISIBILITY.


SDZ038>040-050-052>070-060600-
SOUTHEAST SOUTH DAKOTA

CITY           SKY/WX    TMP DP  RH WIND       PRES   REMARKS
BROOKINGS      CLOUDY    70  64  83 SE15      29.80F
CHAMBERLAIN    LGT RAIN  67  65  94 N23G32    29.84F
HURON          CLOUDY    72  68  87 N15G24    29.80F THUNDER
MADISON        TSTM      66  66 100 E25       29.80R
MITCHELL       TSTM      73  71  93 VRB3      29.79R
SIOUX FALLS    CLOUDY    80  72  76 SE13      29.73F
WINNER         CLOUDY    68  64  87 N18       29.88R
YANKTON        CLOUDY    79  73  83 SE14      29.66F
$$

MNZ071-072-080-081-089-090-097-098-060600-
SOUTHWEST MINNESOTA

CITY           SKY/WX    TMP DP  RH WIND       PRES   REMARKS
FAIRMONT       CLOUDY    75  64  69 S14       29.79F
JACKSON        CLOUDY    77  70  78 S12       29.80F
LUVERNE        CLOUDY    79  70  73 S9        29.76F
MARSHALL       CLOUDY    72  64  78 N21G29    29.78S THUNDER
PIPESTONE      CLOUDY    73  64  73 N20G32    29.83R THUNDER
REDWOOD FALLS  LGT RAIN  78  71  79 SW8       29.75F
TRACY          CLOUDY    78  72  83 SE7       29.77F
WINDOM         CLOUDY    77  70  78 S8        29.77F
WORTHINGTON    CLOUDY    75  68  78 SE8       29.80S
$$

IAZ001>003-012>014-020>022-031-032-NEZ013-014-SDZ071-060600-
NORTHWEST IOWA

CITY           SKY/WX    TMP DP  RH WIND       PRES   REMARKS
CHEROKEE       CLOUDY    76  72  87 S8        29.77F
DENISON        CLOUDY    77  73  88 S18G29    29.81S FOG
ESTHERVILLE    CLOUDY    75  69  81 S16       29.80F
LE MARS        CLOUDY    79  73  83 SE13G20   29.73F
ORANGE CITY    CLOUDY    77  72  83 S10G17    29.74F
SHELDON        CLOUDY    77  75  94 SE14      29.74F
SIOUX CITY     CLOUDY    81  72  74 SE13      29.74F
SPENCER        CLOUDY    78  69  73 SE15      29.78F
STORM LAKE     CLOUDY    75  72  88 SE12      29.80F
$$

ABBREVIATIONS USED IN REMARKS
   TC - TEMPERATURE IN CELSIUS
  WCI - WIND CHILL INDEX
   HX - HEAT INDEX
  VSB - VISIBILITY



USA.gov is the U.S. government's official web portal to all federal, state and local government web resources and services.